Location: Unspecified
(0.0000°N, 0.0000°E)
Time: 08:40:57
(UTC+02:00)

CZ-4B DEB - Visible Passes

Search period start: 31 March 2015 00:00
Search period end: 10 April 2015 00:00
Orbit: 492 x 503 km, 97.5° (Epoch: 30 March)

Date Brightness Start Highest point End Pass type
(mag) Time Alt. Az. Time Alt. Az. Time Alt. Az.
31 Mar 6.5 21:43:31 10° WSW 21:44:56 12° W 21:46:06 10° W visible
01 Apr 5.5 21:21:30 10° SSW 21:24:31 24° W 21:27:28 10° NW visible
02 Apr 3.9 21:00:33 10° S 21:04:06 54° W 21:07:38 10° NNW visible
03 Apr 3.1 20:40:04 10° SSE 20:43:39 62° E 20:47:13 10° N visible
05 Apr 6.2 21:33:40 10° SW 21:36:03 16° W 21:38:17 10° WNW visible
06 Apr 4.8 21:12:02 10° SSW 21:15:22 34° W 21:18:41 10° NW visible
07 Apr 3.1 20:51:02 10° S 20:54:41 83° WSW 20:58:18 10° NNW visible
08 Apr 3.5 20:30:30 10° SSE 20:33:55 41° E 20:37:22 10° N visible
09 Apr 6.5 21:45:28 10° WSW 21:46:38 11° W 21:47:34 10° W visible
